5 day graph

You are here

Hive Data

Page: 1 of 16645  Records: 998690

Row Date Time Hive Temp Hive Humidity Outside Temp Outside Humidity Bottom Board Temp Outside Wall Temp Electronics Temp Light Levels inHG Fan Heat Cover Notes
Clear Sorted By: Hive Temp ascending, Row descending
View 696803 Nov 11 2015 2:59:26pm 25.3 45 10.9 59 52.7 54.5 68 931 29.56 0 1 0 NA
View 696804 Nov 11 2015 3:00:27pm 25.6 41 11 59 54.95 54.5 68 930 29.56 0 1 0 NA
View 367392 Feb 17 2015 6:23:31am 32 0 37.22 69 106.25 39.65 60.8 237 29.42 0 1 0 NA
View 367391 Feb 17 2015 6:22:31am 32 0 37.04 70 106.25 39.65 60.8 237 29.43 0 1 0 NA
View 367390 Feb 17 2015 6:21:30am 32 0 36.68 70 106.25 39.65 60.8 236 29.43 0 1 0 NA
View 367389 Feb 17 2015 6:20:30am 32 0 36.32 71 105.8 39.65 60.8 236 29.43 0 1 0 NA
View 367388 Feb 17 2015 6:19:30am 32 0 36.14 71 105.8 39.2 60.8 237 29.43 0 1 0 NA
View 367387 Feb 17 2015 6:18:29am 32 0 35.78 72 105.8 39.2 60.8 237 29.43 0 1 0 NA
View 367386 Feb 17 2015 6:17:29am 32 0 35.24 72 105.8 39.2 60.8 238 29.43 0 1 0 NA
View 367385 Feb 17 2015 6:16:29am 32 0 34.88 73 105.8 39.2 60.8 237 29.42 0 1 0 NA
View 367384 Feb 17 2015 6:15:28am 32 0 34.52 73 105.8 39.2 60.8 237 29.43 0 1 0 NA
View 367383 Feb 17 2015 6:14:28am 32 0 34.34 74 105.35 39.2 60.8 237 29.42 0 1 0 NA
View 367382 Feb 17 2015 6:13:27am 32 0 34.16 74 105.8 38.75 60.8 236 29.42 0 1 0 NA
View 367381 Feb 17 2015 6:12:27am 32 0 33.98 74 105.35 38.75 60.8 236 29.43 0 1 0 NA
View 367380 Feb 17 2015 6:11:27am 32 0 33.8 74 105.35 38.75 60.8 237 29.43 0 1 0 NA
View 367379 Feb 17 2015 6:10:26am 32 0 33.62 74 105.35 38.75 60.8 236 29.43 0 1 0 NA
View 367378 Feb 17 2015 6:09:26am 32 0 33.62 74 105.35 38.75 60.8 236 29.43 0 1 0 NA
View 367377 Feb 17 2015 6:08:26am 32 0 33.44 74 105.35 38.75 60.8 237 29.43 0 1 0 NA
View 367376 Feb 17 2015 6:07:25am 32 0 33.44 74 105.35 38.75 60.8 237 29.43 0 1 0 NA
View 367375 Feb 17 2015 6:06:25am 32 0 33.44 74 105.35 38.75 60.8 237 29.43 0 1 0 NA
View 367374 Feb 17 2015 6:05:25am 32 0 33.44 74 105.35 38.75 60.8 236 29.43 0 1 0 NA
View 367373 Feb 17 2015 6:04:24am 32 0 33.44 74 105.35 38.75 60.8 236 29.43 0 1 0 NA
View 367372 Feb 17 2015 6:02:38am 32 0 33.44 74 105.35 38.75 60.8 236 29.43 0 1 0 NA
View 367371 Feb 17 2015 6:01:37am 32 0 33.44 74 105.35 38.75 60.8 237 29.43 0 1 0 NA
View 367370 Feb 17 2015 6:00:37am 32 0 33.44 74 105.35 38.75 60.8 237 29.43 0 1 0 NA
View 367369 Feb 17 2015 5:59:36am 32 0 33.44 74 104.9 38.75 60.8 237 29.43 0 1 0 NA
View 367368 Feb 17 2015 5:58:36am 32 0 33.44 74 104.9 38.75 60.8 236 29.43 0 1 0 NA
View 367367 Feb 17 2015 5:57:36am 32 0 33.44 74 104.9 38.75 60.8 236 29.43 0 1 0 NA
View 367366 Feb 17 2015 5:56:35am 32 0 33.44 73 104.9 38.75 60.8 237 29.43 0 1 0 NA
View 367365 Feb 17 2015 5:55:35am 32 0 33.44 73 104.9 38.75 60.8 237 29.43 0 1 0 NA
View 367364 Feb 17 2015 5:54:35am 32 0 33.44 73 104.9 38.75 60.8 236 29.43 0 1 0 NA
View 367363 Feb 17 2015 5:53:34am 32 0 33.44 73 104.9 38.75 60.8 237 29.43 0 1 0 NA
View 367362 Feb 17 2015 5:52:34am 32 0 33.44 72 104.9 38.75 60.8 237 29.43 0 1 0 NA
View 367361 Feb 17 2015 5:51:34am 32 0 33.44 73 104.9 38.75 60.8 237 29.43 0 1 0 NA
View 367360 Feb 17 2015 5:50:33am 32 0 33.44 73 104.9 38.75 60.8 237 29.43 0 1 0 NA
View 367359 Feb 17 2015 5:49:33am 32 0 33.26 73 104.9 38.75 60.8 237 29.43 0 1 0 NA
View 367358 Feb 17 2015 5:48:32am 32 0 33.44 73 104.9 38.75 60.8 237 29.43 0 1 0 NA
View 367357 Feb 17 2015 5:47:32am 32 0 33.26 73 104.9 38.75 60.8 237 29.43 0 1 0 NA
View 367356 Feb 17 2015 5:46:32am 32 0 33.44 73 104.9 38.75 60.8 237 29.43 0 1 0 NA
View 367355 Feb 17 2015 5:45:31am 32 0 33.44 73 104.9 38.75 60.8 237 29.43 0 1 0 NA
View 367354 Feb 17 2015 5:44:31am 32 0 33.26 73 104.9 38.75 60.8 237 29.43 0 1 0 NA
View 367353 Feb 17 2015 5:43:31am 32 0 33.26 73 104.9 38.75 60.8 237 29.43 0 1 0 NA
View 367352 Feb 17 2015 5:42:30am 32 0 33.26 73 104.9 38.75 60.8 237 29.43 0 1 0 NA
View 367351 Feb 17 2015 5:41:30am 32 0 33.26 73 104.9 38.75 60.8 237 29.43 0 1 0 NA
View 367350 Feb 17 2015 5:40:29am 32 0 33.26 73 104.9 38.75 60.8 237 29.43 0 1 0 NA
View 367349 Feb 17 2015 5:39:29am 32 0 33.26 74 104.9 38.75 60.8 237 29.43 0 1 0 NA
View 367348 Feb 17 2015 5:38:29am 32 0 33.26 74 104.9 38.75 60.8 237 29.43 0 1 0 NA
View 367347 Feb 17 2015 5:37:28am 32 0 33.26 74 104.9 38.75 60.8 237 29.43 0 1 0 NA
View 367346 Feb 17 2015 5:36:28am 32 0 33.26 73 104.45 38.75 60.8 237 29.43 0 1 0 NA
View 367345 Feb 17 2015 5:35:28am 32 0 33.26 72 104.45 38.75 60.8 237 29.44 0 1 0 NA
View 367344 Feb 17 2015 5:34:27am 32 0 33.26 73 104.45 38.75 60.8 237 29.43 0 1 0 NA
View 367343 Feb 17 2015 5:33:27am 32 0 33.26 73 104.45 38.75 60.8 237 29.43 0 1 0 NA
View 367342 Feb 17 2015 5:32:26am 32 0 33.26 72 104.45 38.75 60.8 237 29.43 0 1 0 NA
View 367341 Feb 17 2015 5:31:26am 32 0 33.08 72 104.45 38.75 60.8 236 29.43 0 1 0 NA
View 367340 Feb 17 2015 5:30:26am 32 0 33.26 73 104.45 38.75 60.8 237 29.43 0 1 0 NA
View 367339 Feb 17 2015 5:29:25am 32 0 33.26 73 104.45 38.75 60.8 237 29.43 0 1 0 NA
View 367338 Feb 17 2015 5:28:25am 32 0 33.26 72 104.45 38.75 60.8 237 29.43 0 1 0 NA
View 367337 Feb 17 2015 5:27:25am 32 0 33.26 72 104.45 38.75 60.8 237 29.43 0 1 0 NA
View 367336 Feb 17 2015 5:26:24am 32 0 33.26 72 104.45 38.75 60.8 237 29.43 0 1 0 NA
View 367335 Feb 17 2015 5:25:24am 32 0 33.26 72 104.45 38.75 60.8 237 29.43 0 1 0 NA